Temperature
9 10 10 10 10 11 11 11 12 13 13 13 13 13 13 13 14 14 14 15 15 15 16 16 16 16 16 16 16 16 16 16 16 16 16 16 16 16
9 9 9 10 10 10 11 11 11 12 12 13 13 13 13 13 13 14 14 14 15 15 15 16 16 16 16 16 16 16 16 16 16 16 16 16 16 16
9 9 9 9 9 10 10 10 11 11 11 12 12 12 12 12 13 13 14 14 15 15 15 15 16 16 16 16 16 16 16 16 16 16 16 16 16 16
9 9 9 9 9 9 9 10 10 10 11 11 12 12 12 12 12 13 13 14 14 15 15 15 15 16 16 16 16 16 16 16 16 16 16 16 16 16
9 9 9 9 9 9 9 9 10 10 10 11 11 11 11 12 12 13 13 13 14 14 15 15 15 15 16 16 16 16 16 16 16 16 16 16 16 16
8 8 8 8 8 8 9 9 9 10 10 10 11 11 11 12 12 12 13 13 13 14 14 15 15 15 16 16 16 16 16 16 16 16 16 16 16 16
8 8 8 8 8 8 9 9 9 9 10 11 11 11 12 12 12 12 12 13 13 13 14 14 15 15 15 15 16 16 16 16 16 16 16 16 16 16
8 8 8 8 8 8 8 9 9 8 9 10 11 11 11 11 11 12 12 12 13 13 13 14 14 14 15 15 15 15 16 16 16 16 16 16 16 16
8 8 8 9 8 8 8 8 8 8 8 8 9 10 11 11 11 11 11 12 12 13 13 13 13 13 14 14 15 15 15 15 15 15 15 16 16 15
8 8 8 8 8 8 8 8 8 8 8 8 8 9 9 9 10 10 11 11 12 12 12 12 12 13 13 14 14 14 15 15 15 15 15 15 15 15
8 8 8 8 8 7 7 7 8 8 8 8 8 8 9 9 9 10 10 11 11 12 12 12 12 12 12 13 13 13 14 14 14 15 15 15 15 15
8 8 8 7 7 7 7 7 7 8 8 8 8 8 9 9 9 9 10 10 11 11 11 12 12 12 12 12 12 12 13 13 14 14 14 14 14 14
8 8 8 7 7 7 7 7 7 7 7 8 8 8 8 9 9 9 9 10 11 11 11 11 11 11 11 11 11 12 12 12 13 13 13 13 13 13
7 7 7 7 7 7 7 7 7 7 7 7 8 8 9 9 9 10 10 10 10 11 11 11 11 12 12 11 11 11 11 12 12 12 12 12 13 13
7 7 7 7 7 7 7 7 7 6 6 7 8 8 9 9 9 9 9 10 10 10 11 11 11 11 12 12 11 11 11 11 11 12 12 12 12 13
7 7 7 7 7 7 6 6 6 6 7 7 8 8 8 9 9 9 9 10 10 10 10 10 11 11 11 11 11 11 11 11 11 11 12 12 12 12
7 7 7 7 7 7 7 7 7 7 6 7 7 8 8 8 9 9 9 10 9 10 10 10 10 10 11 11 11 11 11 11 11 11 11 11 11 12
7 6 7 7 7 7 7 7 7 7 7 7 7 7 8 8 8 9 9 9 9 10 10 10 10 10 10 10 10 11 11 11 11 11 11 11 11 11
7 7 7 7 7 7 7 7 7 7 7 7 7 7 8 8 8 9 9 9 9 9 9 9 10 9 9 9 10 10 10 11 11 11 11 11 11 11
7 7 7 7 7 7 7 7 7 7 7 7 7 7 8 8 8 8 9 9 9 9 9 9 9 9 10 10 10 10 10 11 11 11 11 10 10 11
7 7 7 7 7 7 7 7 7 7 7 7 7 8 8 8 8 8 9 9 9 9 9 9 9 9 9 10 10 10 10 10 11 11 11 10 10 10
8 8 7 7 7 7 7 7 7 7 7 7 7 8 8 8 8 8 9 9 9 9 9 9 9 9 9 10 10 10 10 10 10 10 10 10 11 10
8 7 7 7 7 7 8 8 7 8 7 8 8 8 8 8 8 9 9 9 9 9 9 9 9 9 9 9 10 9 9 9 9 9 9 9 10 11
Wind_Speed
11 11 11 11 10 11 11 11 11 12 11 8 6 4 3 5 5 8 10 12 17 20 23 26 28 30 31 32 33 33 33 32 32 32 32 32 31 30
10 11 11 11 10 10 11 11 11 12 13 10 7 7 6 7 7 9 9 10 14 18 21 24 26 28 30 31 32 32 32 32 32 31 31 30 30 30
12 12 13 13 11 11 11 11 11 11 13 12 10 8 8 9 8 7 8 8 9 14 17 20 22 25 27 29 30 31 30 30 30 30 30 30 29 29
13 13 13 12 13 12 12 12 12 11 12 14 12 10 9 8 8 8 6 6 6 9 14 17 19 22 25 27 29 29 29 29 30 30 29 29 29 28
13 14 14 13 14 13 13 13 12 12 12 13 13 10 9 8 7 7 7 5 6 7 11 14 17 19 22 24 26 27 28 28 29 29 29 28 27 27
14 14 14 14 14 14 13 13 13 13 12 13 12 11 9 8 7 7 6 5 5 5 5 7 11 15 18 21 24 25 26 27 27 27 27 26 26 25
14 14 15 14 13 12 12 13 12 12 12 12 12 11 10 8 8 6 6 5 4 4 4 5 7 8 11 15 18 21 23 24 24 25 25 24 23 23
15 14 14 14 15 16 17 17 16 15 14 13 12 12 11 10 8 7 7 6 4 4 4 4 5 6 6 8 14 19 21 22 22 23 23 22 22 21
15 14 13 13 12 14 16 20 21 21 20 17 16 14 12 10 10 10 9 7 5 4 4 3 3 4 3 5 12 16 18 20 21 21 21 21 21 21
16 15 15 15 14 13 14 15 16 17 18 18 17 17 15 12 10 11 9 7 5 4 4 3 2 3 3 5 8 12 15 17 19 20 21 21 21 21
15 14 14 14 11 9 14 16 16 15 15 15 15 14 12 10 9 9 9 8 6 5 4 4 4 3 3 3 5 10 13 16 18 20 21 23 23 21
12 12 12 13 10 7 13 15 16 15 14 14 15 16 16 16 14 14 12 10 7 5 5 5 5 5 4 2 3 5 8 12 17 20 22 25 26 17
11 10 9 8 11 11 13 14 14 13 13 13 13 14 14 13 14 15 14 12 10 6 7 7 6 5 5 4 2 3 5 7 9 11 19 23 19 12
11 11 8 4 8 11 12 12 11 11 12 12 12 12 12 12 13 14 14 14 11 8 9 10 6 8 7 6 5 4 4 6 8 8 11 13 10 7
11 10 10 9 9 11 15 14 12 12 12 13 13 12 12 12 11 10 12 11 11 9 10 10 8 8 8 8 8 7 5 5 8 9 10 10 9 10
11 10 13 14 13 12 9 11 12 12 12 12 12 12 11 11 11 11 11 10 9 7 8 10 9 9 8 9 11 11 9 9 10 10 10 10 10 12
9 9 9 8 9 9 9 10 10 11 12 12 12 11 11 11 11 11 11 11 11 10 8 6 5 4 3 6 11 12 12 10 11 11 11 10 10 10
9 10 10 9 9 9 9 9 9 11 11 11 11 11 11 11 11 11 11 12 11 11 10 9 7 5 3 3 0 11 12 12 12 12 12 11 11 10
9 10 10 10 9 9 8 9 9 10 10 10 11 11 11 11 11 11 12 12 11 11 11 11 11 10 10 8 3 3 10 12 13 12 11 11 11 11
9 10 10 9 8 8 8 8 8 8 9 10 10 10 11 11 11 11 12 13 12 11 11 12 12 12 12 10 8 6 9 13 14 13 12 9 8 10
8 8 8 8 8 7 7 7 8 8 9 9 9 10 10 10 11 11 11 13 13 12 13 13 11 10 6 8 9 8 9 8 8 9 13 12 11 12
8 8 8 9 8 8 7 7 8 8 9 9 9 9 9 10 11 12 11 12 12 12 12 11 11 10 9 10 11 12 10 9 6 7 7 3 8 11
8 8 8 8 8 8 7 8 9 8 8 8 9 9 10 10 10 10 11 11 11 12 12 12 11 10 9 9 10 11 14 14 11 10 7 5 6 8
Wind_Direction
265 259 257 265 263 265 266 267 273 279 277 276 269 265 289 291 283 264 254 235 224 223 220 217 215 214 212 211 212 212 214 214 214 215 217 217 217 218
264 270 269 267 266 263 263 262 261 266 274 276 275 275 291 293 284 273 261 247 231 226 222 219 216 214 211 211 211 210 211 211 212 211 213 214 215 217
263 260 257 262 266 266 262 259 259 260 267 272 270 273 276 280 282 275 263 251 234 221 221 219 216 213 210 209 209 208 209 209 210 210 210 212 213 215
265 264 261 258 254 258 263 262 261 262 265 271 274 271 268 270 275 270 263 253 244 214 216 217 213 212 210 208 207 206 207 208 208 208 208 210 212 214
266 264 262 260 258 256 257 259 260 257 256 263 267 267 265 262 266 260 255 249 244 215 207 212 210 207 207 206 205 205 205 205 206 206 206 208 210 210
266 263 261 258 256 256 256 255 258 261 259 259 263 263 256 252 250 252 244 234 233 218 201 198 197 199 200 201 202 202 202 203 203 203 204 204 205 206
267 263 260 257 261 262 262 260 256 253 255 255 256 257 255 249 246 244 243 230 228 219 199 189 183 189 192 196 197 197 196 197 198 199 199 198 198 198
270 266 263 252 244 238 247 258 265 262 260 261 259 257 259 257 252 249 242 227 226 207 195 193 182 175 178 184 185 186 188 190 191 191 190 189 188 188
270 268 265 262 248 248 238 234 243 247 252 259 264 265 264 257 257 250 241 238 236 194 185 190 167 156 138 132 160 173 179 181 181 181 179 178 176 175
266 265 263 264 260 259 260 252 246 240 236 238 247 256 261 268 262 255 256 245 239 214 188 179 159 128 107 105 136 159 168 171 171 170 168 166 164 161
267 265 264 264 258 247 258 261 260 254 243 237 244 252 270 280 274 261 245 230 227 212 188 165 145 119 103 97 104 137 152 158 159 159 158 155 151 146
274 269 256 251 263 242 254 257 257 255 254 242 230 235 243 245 236 241 243 233 227 207 182 163 151 141 123 91 98 124 131 139 147 150 151 151 150 148
282 278 273 216 228 235 247 257 261 267 261 254 248 240 233 233 231 226 229 229 225 215 179 169 164 160 141 132 110 113 134 139 136 142 151 156 162 165
278 278 282 237 232 236 241 250 255 258 256 253 247 241 236 231 226 223 221 224 226 215 184 177 172 173 154 147 142 137 135 141 144 144 148 153 153 151
270 278 282 268 256 246 237 237 240 242 243 245 244 240 237 234 230 223 219 219 218 209 191 188 180 180 174 162 154 157 151 154 156 153 155 164 167 164
264 261 245 244 247 257 251 227 231 236 236 240 242 241 236 231 228 223 215 206 206 202 193 186 185 182 186 171 161 166 165 163 166 163 161 165 172 177
307 284 272 262 251 247 246 239 232 228 230 236 240 238 232 227 224 220 214 207 203 195 183 174 163 152 155 171 170 170 166 163 166 163 164 165 173 177
280 273 271 266 261 256 250 243 235 232 230 229 231 232 229 224 221 217 210 206 203 196 183 169 153 135 107 32 246 172 168 166 164 166 171 166 171 178
257 265 269 267 263 260 254 249 244 236 232 230 227 226 226 223 219 215 208 204 201 195 182 172 172 171 171 175 193 229 172 163 161 168 177 175 174 172
251 261 268 271 267 260 256 249 244 240 232 228 225 223 222 221 219 215 209 204 199 193 183 179 184 188 188 176 162 178 184 168 167 169 172 172 150 122
270 268 270 272 269 261 256 250 243 239 234 227 223 220 219 219 219 216 211 198 197 194 188 188 186 180 167 141 140 153 170 170 167 171 168 166 161 166
281 277 274 272 269 263 254 248 244 239 235 229 223 218 217 219 220 218 209 200 198 196 190 179 169 173 174 171 164 157 159 162 141 120 110 116 179 184
285 281 277 271 266 262 257 247 243 239 233 227 221 217 215 217 221 217 208 201 197 191 179 169 168 175 179 174 162 156 158 162 163 165 162 51 50 90
Height
1499 1499 1498 1498 1498 1497 1497 1497 1496 1493 1491 1490 1490 1489 1488 1488 1488 1488 1489 1491 1494 1497 1501 1506 1511 1516 1521 1526 1531 1536 1542 1547 1552 1557 1561 1566 1570 1573
1494 1493 1492 1493 1493 1492 1492 1491 1491 1490 1487 1486 1486 1485 1484 1484 1483 1483 1484 1485 1488 1490 1494 1499 1503 1508 1513 1518 1524 1529 1534 1540 1545 1550 1555 1560 1564 1568
1489 1488 1487 1487 1487 1487 1487 1486 1486 1485 1483 1482 1482 1481 1480 1479 1479 1479 1479 1480 1482 1484 1488 1492 1496 1501 1506 1511 1516 1521 1527 1532 1538 1543 1548 1553 1558 1562
1484 1483 1482 1482 1481 1481 1481 1481 1480 1480 1479 1478 1477 1477 1475 1475 1474 1474 1474 1475 1477 1478 1481 1485 1489 1493 1498 1503 1509 1514 1520 1525 1531 1536 1542 1547 1551 1556
1478 1477 1476 1476 1475 1475 1475 1475 1475 1475 1474 1473 1472 1472 1471 1471 1470 1470 1470 1471 1472 1473 1476 1479 1482 1486 1491 1496 1502 1507 1513 1519 1524 1530 1535 1540 1545 1549
1471 1470 1470 1469 1469 1469 1469 1469 1469 1469 1469 1468 1468 1467 1467 1466 1466 1466 1466 1466 1467 1469 1470 1473 1476 1480 1484 1490 1495 1500 1506 1512 1518 1523 1529 1534 1539 1543
1465 1464 1463 1463 1462 1462 1463 1463 1464 1464 1464 1463 1463 1463 1462 1462 1462 1462 1462 1462 1463 1464 1465 1467 1471 1474 1478 1483 1489 1494 1500 1505 1511 1517 1522 1528 1533 1537
1458 1457 1457 1455 1454 1454 1454 1455 1456 1457 1458 1458 1458 1458 1457 1458 1458 1458 1458 1458 1459 1460 1461 1463 1466 1469 1473 1478 1483 1488 1494 1500 1505 1511 1517 1522 1527 1531
1451 1450 1450 1450 1449 1448 1447 1447 1448 1448 1450 1451 1452 1452 1453 1453 1454 1454 1454 1454 1455 1456 1458 1459 1461 1465 1469 1473 1478 1484 1489 1494 1500 1505 1511 1516 1521 1526
1444 1443 1442 1442 1442 1442 1442 1441 1441 1441 1442 1443 1444 1445 1447 1448 1448 1449 1449 1450 1451 1452 1454 1456 1458 1461 1464 1469 1474 1479 1484 1490 1495 1500 1506 1511 1516 1521
1438 1437 1435 1435 1435 1434 1434 1434 1434 1435 1436 1436 1437 1438 1439 1441 1442 1444 1445 1446 1446 1447 1449 1452 1455 1458 1461 1466 1470 1475 1480 1485 1490 1496 1501 1506 1511 1516
1432 1430 1429 1428 1428 1427 1427 1427 1427 1427 1429 1430 1429 1430 1431 1433 1435 1437 1439 1441 1442 1443 1445 1448 1451 1455 1459 1463 1467 1472 1477 1482 1487 1492 1497 1502 1507 1512
1426 1425 1424 1422 1421 1420 1420 1420 1420 1421 1422 1423 1423 1424 1425 1426 1428 1430 1433 1435 1437 1439 1441 1444 1447 1451 1455 1459 1464 1469 1474 1478 1483 1488 1493 1498 1503 1508
1420 1419 1418 1416 1415 1414 1413 1413 1414 1414 1416 1416 1417 1417 1419 1420 1422 1424 1426 1429 1431 1435 1437 1440 1443 1447 1451 1455 1460 1466 1471 1476 1480 1485 1489 1494 1500 1504
1414 1412 1411 1409 1408 1407 1407 1407 1407 1408 1409 1410 1410 1411 1412 1414 1416 1419 1421 1423 1426 1429 1432 1435 1439 1444 1448 1451 1456 1461 1466 1472 1477 1482 1486 1491 1496 1501
1409 1407 1405 1403 1402 1401 1400 1400 1400 1401 1401 1402 1404 1405 1406 1408 1410 1412 1415 1418 1421 1424 1427 1431 1435 1440 1444 1449 1453 1458 1463 1467 1473 1479 1484 1489 1494 1498
1404 1402 1400 1398 1396 1395 1394 1394 1394 1394 1394 1395 1397 1398 1400 1402 1404 1407 1409 1413 1415 1418 1422 1426 1430 1435 1441 1445 1450 1455 1460 1464 1470 1475 1480 1486 1491 1495
1399 1397 1395 1393 1391 1390 1389 1388 1388 1388 1388 1389 1390 1392 1394 1396 1398 1401 1404 1407 1410 1413 1417 1421 1425 1431 1436 1442 1446 1450 1455 1460 1466 1471 1477 1483 1487 1492
1394 1392 1389 1387 1385 1384 1383 1382 1382 1382 1382 1383 1384 1386 1388 1391 1393 1395 1398 1401 1405 1408 1412 1416 1420 1425 1430 1436 1441 1447 1451 1456 1462 1467 1474 1480 1485 1489
1389 1387 1384 1382 1380 1379 1377 1377 1376 1376 1377 1378 1379 1381 1383 1385 1388 1390 1393 1396 1400 1403 1407 1411 1415 1420 1426 1431 1436 1442 1447 1452 1458 1463 1470 1477 1482 1486
1385 1383 1380 1378 1376 1374 1373 1372 1372 1372 1372 1373 1374 1376 1378 1380 1383 1385 1388 1391 1395 1398 1402 1406 1411 1417 1423 1428 1432 1437 1443 1449 1454 1460 1466 1472 1477 1481
1381 1378 1376 1374 1372 1371 1369 1368 1368 1368 1368 1369 1370 1372 1374 1376 1378 1381 1384 1386 1390 1394 1398 1403 1408 1413 1418 1422 1427 1432 1438 1444 1450 1457 1463 1468 1472 1477
1376 1374 1371 1369 1368 1367 1366 1365 1364 1364 1364 1365 1366 1368 1370 1372 1374 1377 1379 1382 1386 1390 1394 1399 1403 1409 1414 1419 1424 1428 1434 1439 1445 1452 1459 1464 1469 1474